Flag for Germany Weather past 2 weeks in Schwerte, North Rhine-Westphalia, Germany

Now
57 °F

Light rain. Partly sunny.


Feels Like: 57 °F
Forecast: 55 / 72 °F
Wind: 2 mph from North

Location: Dortmund / Wickede

Current Time: Sep 15, 2014 at 12:24:10 PM

Latest Report: Sep 15, 2014 at 11:50 AM


Visibility: 6 mi

Pressure: 30.07 "Hg

Humidity: 88%

Dew point: 54 °F

Location of SchwerteLocation

Historic Weather in Schwerte — Graph

°F

Schwerte temperature yesterday

Maximum temperature yesterday: 70 °F (at 4:20 PM)
Minimum temperature yesterday: 54 °F (at 5:20 AM)
Average temperature yesterday: 61 °F

Past Weeks' High & Low Weather Summary

 TemperatureHumidityPressure
High77 °F (Sep 6, 1:50 PM)100% (Sep 3, 9:20 AM)30.24 "Hg (Sep 3, 9:20 AM)
Low43 °F (Sep 12, 5:50 AM)46% (Sep 11, 3:20 PM)29.89 "Hg (Sep 6, 6:50 AM)
Average61 °F76%30.09 "Hg
* Reported Aug 31 11:20 AM — Sep 15 11:20 AM, Schwerte, Weather by CustomWeather, © 2014

Note: Actual official high and low records may vary slightly from our data, if they occured in-between our weather recording intervals... More about our weather records

Advertising

Schwerte weather history for previous 24 hours

 ConditionsComfort  
Time TempWeatherWind HumidityBarometerVisibility
11:20 AM
Sep 15
57 °FPartly sunny.2 mph88%30.07 "HgN/A
10:20 AM55 °FPartly sunny.2 mph88%30.07 "Hg5 mi
9:50 AM55 °FSunny.2 mph94%30.07 "Hg10 mi
9:20 AM54 °FPartly sunny.2 mph94%30.04 "HgN/A
8:50 AM54 °FSunny.2 mph94%30.04 "Hg10 mi
8:20 AM54 °FSunny.2 mph94%30.04 "Hg10 mi
7:50 AM50 °FClear.2 mph94%30.04 "Hg10 mi
7:20 AM50 °FClear.2 mph88%30.04 "Hg10 mi
6:50 AM52 °FClear.2 mph88%30.04 "Hg10 mi
6:20 AM52 °FClear.1 mph88%30.04 "Hg10 mi
5:50 AM52 °FClear.1 mph94%30.07 "Hg10 mi
5:20 AM54 °FClear.2 mph88%30.07 "Hg10 mi
10:50 PM
Sep 14
59 °FClear.5 mph82%30.09 "Hg10 mi
10:20 PM57 °FClear.2 mph88%30.09 "Hg10 mi
9:50 PM57 °FClear.3 mph77%30.09 "Hg10 mi
9:20 PM57 °FClear.3 mph82%30.09 "Hg10 mi
8:50 PM59 °FClear.3 mph77%30.09 "Hg10 mi
8:20 PM59 °FSunny.2 mph77%30.09 "Hg10 mi
7:50 PM63 °FSunny.3 mph68%30.09 "Hg10 mi
7:20 PM64 °FSunny.3 mph64%30.09 "Hg10 mi
6:50 PM66 °FPassing clouds.7 mph60%30.09 "HgN/A
6:20 PM66 °FPassing clouds.7 mph64%30.09 "HgN/A
5:50 PM66 °FPassing clouds.8 mph60%30.09 "HgN/A
5:20 PM68 °FPassing clouds.7 mph56%30.09 "HgN/A
4:50 PM68 °FPassing clouds.8 mph60%30.09 "HgN/A
4:20 PM70 °FPassing clouds.8 mph57%30.09 "HgN/A
3:50 PM66 °FPassing clouds.6 mph60%30.12 "HgN/A
3:20 PM68 °FScattered clouds.7 mph56%30.12 "HgN/A
2:50 PM66 °FScattered clouds.6 mph64%30.12 "HgN/A
2:20 PM64 °FScattered clouds.8 mph68%30.12 "HgN/A
1:50 PM68 °FScattered clouds.7 mph60%30.15 "HgN/A
1:20 PM66 °FScattered clouds.6 mph68%30.15 "HgN/A
12:50 PM63 °FScattered clouds.6 mph77%30.15 "HgN/A
12:20 PM63 °FPartly sunny.5 mph77%30.15 "HgN/A
Weather by CustomWeather, © 2014

See weather overviewHow to use our weather pages